KG6SIB Weather Reports


time (UTC)temp
F
wind
direction
speed
knots
gust
knots
rain 1hr
in
rain 24hr
in
rain mn
in
humidity
%
barometer
mb
20260507115141 45 57 3.5 7.0 0.00 0.00 0.00 84 1017.2
20260507114642 45 62 4.3 7.0 0.00 0.00 0.00 84 1017.1
20260507114141 45 48 5.2 7.0 0.00 0.00 0.00 84 1017.2
20260507113642 45 47 4.3 5.2 0.00 0.00 0.00 84 1017.2
20260507112641 45 46 4.3 7.0 0.00 0.00 0.00 85 1017.3
20260507111641 45 47 2.6 7.0 0.00 0.00 0.00 86 1017.3
20260507111141 45 75 4.3 7.0 0.00 0.00 0.00 86 1017.3
20260507110641 45 71 1.7 7.0 0.00 0.00 0.00 87 1017.5
20260507105641 44 55 4.3 6.1 0.00 0.00 0.00 87 1017.7
20260507105141 44 30 5.2 6.1 0.00 0.00 0.00 87 1017.7
20260507104641 44 43 4.3 7.0 0.00 0.00 0.00 87 1017.7
20260507104141 44 69 3.5 7.8 0.00 0.00 0.00 88 1017.7
20260507103641 44 41 3.5 7.8 0.00 0.00 0.00 88 1017.7
20260507103141 44 41 5.2 7.0 0.00 0.00 0.00 88 1017.8
20260507102141 44 57 3.5 6.1 0.00 0.00 0.00 88 1017.9
20260507101641 44 68 3.5 5.2 0.00 0.00 0.00 89 1017.8
20260507101140 44 74 3.5 5.2 0.00 0.00 0.00 89 1017.8
20260507100641 44 71 3.5 6.1 0.00 0.00 0.00 89 1017.7
20260507100141 44 54 3.5 6.1 0.00 0.00 0.00 90 1017.8
20260507095640 44 63 4.3 7.8 0.00 0.00 0.00 90 1017.9
20260507095141 44 49 3.5 7.8 0.00 0.00 0.00 90 1017.9
20260507094641 44 51 3.5 7.0 0.00 0.00 0.00 90 1018.0
20260507094140 44 40 4.3 5.2 0.00 0.00 0.00 90 1018.0
20260507093640 44 30 2.6 5.2 0.00 0.00 0.00 90 1018.1
20260507093141 44 34 4.3 6.1 0.00 0.00 0.00 90 1018.2
20260507092641 44 66 3.5 6.1 0.00 0.00 0.00 89 1018.2
20260507092140 44 60 3.5 6.1 0.00 0.00 0.00 89 1018.2
20260507090640 44 42 3.5 5.2 0.00 0.00 0.00 90 1018.5
20260507090140 44 48 3.5 5.2 0.00 0.00 0.00 90 1018.6
20260507085640 44 63 3.5 5.2 0.00 0.00 0.00 90 1018.7
20260507085140 44 47 2.6 6.1 0.00 0.00 0.00 90 1018.6
20260507084640 44 32 3.5 6.1 0.00 0.00 0.00 90 1018.7
20260507084140 44 42 5.2 6.1 0.00 0.00 0.00 90 1018.7
20260507083640 44 28 4.3 6.1 0.00 0.00 0.00 90 1018.7
20260507083140 45 54 3.5 6.1 0.00 0.00 0.00 90 1018.8
20260507082639 45 67 3.5 6.1 0.00 0.00 0.00 90 1018.8
20260507081640 45 53 2.6 5.2 0.00 0.00 0.00 90 1018.9
20260507080639 45 58 3.5 5.2 0.00 0.00 0.00 90 1018.9
20260507080139 45 43 3.5 5.2 0.00 0.00 0.00 90 1018.9
20260507075639 45 21 4.3 5.2 0.00 0.00 0.00 90 1018.6
20260507075139 45 25 3.5 5.2 0.00 0.00 0.00 90 1018.6
20260507074639 45 40 4.3 5.2 0.00 0.00 0.00 90 1018.5
20260507074139 45 49 4.3 6.1 0.00 0.00 0.00 90 1018.6
20260507073639 45 61 3.5 6.1 0.00 0.00 0.00 90 1018.6
20260507073139 45 42 3.5 6.1 0.00 0.00 0.00 90 1018.6
20260507072639 46 78 4.3 5.2 0.00 0.00 0.00 90 1018.8
20260507071139 46 62 2.6 6.1 0.00 0.00 0.00 90 1019.0
20260507070138 46 64 2.6 5.2 0.00 0.00 0.00 89 1019.0
20260507065638 46 69 2.6 4.3 0.00 0.00 0.00 89 1018.6
20260507065139 46 49 2.6 4.3 0.00 0.00 0.00 89 1018.6
20260507064138 46 33 0.0 5.2 0.00 0.00 0.00 89 1018.6
20260507063638 47 44 3.5 5.2 0.00 0.00 0.00 89 1018.9
20260507063138 47 16 1.7 6.1 0.00 0.00 0.00 89 1018.8
20260507062638 47 59 4.3 6.1 0.00 0.00 0.00 89 1018.9
20260507062138 47 36 1.7 7.0 0.00 0.00 0.00 89 1019.0
20260507061638 47 31 5.2 7.0 0.00 0.00 0.00 89 1019.0
20260507061138 47 13 2.6 7.0 0.00 0.00 0.00 89 1018.9
20260507060638 47 39 3.5 5.2 0.00 0.00 0.00 89 1019.0
20260507060138 47 52 2.6 6.1 0.00 0.00 0.00 90 1018.9
20260507055638 47 32 4.3 6.1 0.00 0.00 0.00 90 1018.4
20260507055138 47 36 4.3 4.3 0.00 0.00 0.00 90 1018.4
20260507054638 47 45 2.6 4.3 0.00 0.00 0.00 89 1018.4
20260507054137 47 31 2.6 5.2 0.00 0.00 0.00 90 1018.3
20260507053638 48 44 2.6 5.2 0.00 0.00 0.00 90 1018.7
20260507053137 48 38 1.7 4.3 0.00 0.00 0.00 90 1018.6
20260507052638 48 63 4.3 4.3 0.00 0.00 0.00 90 1018.6
20260507051638 48 24 3.5 4.3 0.00 0.00 0.00 90 1018.6
20260507051137 48 40 2.6 6.1 0.00 0.00 0.00 90 1018.7
20260507050637 48 41 4.3 6.1 0.00 0.00 0.00 90 1018.7
20260507050137 48 63 1.7 5.2 0.00 0.00 0.00 90 1018.7
20260507045637 48 42 1.7 5.2 0.00 0.00 0.00 89 1018.2
20260507045137 48 68 2.6 4.3 0.00 0.00 0.00 89 1018.2
20260507044637 48 53 3.5 6.1 0.00 0.00 0.00 89 1018.4
20260507044137 48 51 2.6 6.1 0.00 0.00 0.00 89 1018.3
20260507043637 49 52 1.7 6.1 0.00 0.00 0.00 89 1018.6
20260507043137 49 76 2.6 5.2 0.00 0.00 0.00 89 1018.6
20260507042637 49 35 4.3 5.2 0.00 0.00 0.00 88 1018.7
20260507041637 49 44 1.7 4.3 0.00 0.00 0.00 88 1018.6
20260507040137 50 37 0.0 3.5 0.00 0.00 0.00 87 1018.5
20260507035637 50 45 3.5 4.3 0.00 0.00 0.00 87 1017.9
20260507035136 50 47 1.7 4.3 0.00 0.00 0.00 87 1017.9
20260507034637 51 53 2.6 3.5 0.00 0.00 0.00 86 1017.8
20260507034137 51 55 3.5 3.5 0.00 0.00 0.00 86 1017.7
20260507033136 52 59 0.9 4.3 0.00 0.00 0.00 85 1018.0
20260507032637 52 66 1.7 3.5 0.00 0.00 0.00 85 1018.0
20260507031636 53 79 1.7 4.3 0.00 0.00 0.00 83 1018.0
20260507031136 53 5 1.7 3.5 0.00 0.00 0.00 83 1018.0
20260507030636 54 347 1.7 2.6 0.00 0.00 0.00 82 1018.1
20260507025136 55 244 0.0 0.9 0.00 0.00 0.00 81 1017.1
20260507024636 56 244 0.0 0.9 0.00 0.00 0.00 80 1017.0
20260507023636 57 244 0.0 3.5 0.00 0.00 0.00 79 1017.3
20260507023136 57 244 0.0 3.5 0.00 0.00 0.00 79 1017.2
20260507022136 58 245 1.7 3.5 0.00 0.00 0.00 78 1017.1
20260507021636 59 245 1.7 4.3 0.00 0.00 0.00 77 1017.4
20260507021136 59 243 0.0 4.3 0.00 0.00 0.00 77 1017.4
20260507020636 59 242 3.5 6.1 0.00 0.00 0.00 76 1017.3
20260507020135 60 231 3.5 6.1 0.00 0.00 0.00 75 1017.4
20260507015635 60 234 0.9 4.3 0.00 0.00 0.00 75 1016.6
20260507015135 60 234 0.0 4.3 0.00 0.00 0.00 74 1016.6
20260507014635 61 225 0.0 5.2 0.00 0.00 0.00 74 1016.8
20260507014136 61 232 4.3 5.2 0.00 0.00 0.00 73 1016.8
20260507013635 61 241 0.0 5.2 0.00 0.00 0.00 73 1016.7
20260507013135 62 240 1.7 6.1 0.00 0.00 0.00 71 1016.6
20260507012635 62 248 1.7 6.1 0.00 0.00 0.00 71 1016.7
20260507011635 63 244 0.9 6.1 0.00 0.00 0.00 70 1017.1
20260507011135 63 217 0.0 6.1 0.00 0.00 0.00 70 1017.1
20260507010635 63 232 0.9 9.6 0.00 0.00 0.00 69 1017.0
20260507010135 64 214 5.2 9.6 0.00 0.00 0.00 67 1017.0
20260507005635 64 234 2.6 7.8 0.00 0.00 0.00 66 1016.5
20260507005135 65 223 4.3 7.8 0.00 0.00 0.00 66 1016.5
20260507004635 65 254 0.0 7.0 0.00 0.00 0.00 65 1016.5
20260507004135 65 235 0.0 7.0 0.00 0.00 0.00 64 1016.6
20260507003635 66 241 0.9 7.8 0.00 0.00 0.00 65 1016.8
20260507003135 66 222 3.5 8.7 0.00 0.00 0.00 63 1016.7
20260507002634 66 257 2.6 8.7 0.00 0.00 0.00 63 1016.6
20260507002135 66 225 1.7 7.8 0.00 0.00 0.00 62 1016.6
20260507001635 67 230 1.7 9.6 0.00 0.00 0.00 61 1016.6
20260507001134 67 211 1.7 9.6 0.00 0.00 0.00 63 1016.7
20260507000635 67 195 2.6 7.8 0.00 0.00 0.00 61 1016.6
20260507000134 67 257 1.7 11.3 0.00 0.00 0.00 61 1016.5
20260506235634 68 161 3.5 11.3 0.00 0.00 0.00 59 1016.8
20260506235134 69 237 3.5 9.6 0.00 0.00 0.00 59 1016.9
20260506234634 69 238 5.2 10.4 0.00 0.00 0.00 59 1016.9
20260506234134 69 218 2.6 10.4 0.00 0.00 0.00 59 1016.9
20260506233634 69 202 0.9 8.7 0.00 0.00 0.00 60 1017.0
20260506233134 69 221 4.3 8.7 0.00 0.00 0.00 59 1016.9
20260506232634 69 244 4.3 7.8 0.00 0.00 0.00 59 1016.9
20260506232134 69 227 5.2 8.7 0.00 0.00 0.00 59 1016.9
20260506231634 69 242 0.9 8.7 0.00 0.00 0.00 57 1016.9
20260506231134 70 227 4.3 10.4 0.00 0.00 0.00 56 1017.0
20260506230633 70 239 0.0 10.4 0.00 0.00 0.00 58 1017.1
20260506230133 70 221 2.6 10.4 0.00 0.00 0.00 56 1017.0
20260506225634 71 202 2.6 10.4 0.00 0.00 0.00 58 1017.4
20260506225133 70 254 0.9 8.7 0.00 0.00 0.00 55 1017.0
20260506224634 70 227 0.0 8.7 0.00 0.00 0.00 56 1017.1
20260506224134 71 78 0.9 10.4 0.00 0.00 0.00 53 1017.4
20260506223634 71 220 1.7 12.2 0.00 0.00 0.00 54 1017.5
20260506223134 71 254 4.3 12.2 0.00 0.00 0.00 54 1017.5
20260506222633 71 250 3.5 9.6 0.00 0.00 0.00 53 1017.6
20260506222133 71 329 1.7 11.3 0.00 0.00 0.00 52 1017.8
20260506221633 71 219 6.1 11.3 0.00 0.00 0.00 52 1017.7
20260506221133 71 253 11.3 11.3 0.00 0.00 0.00 52 1017.8
20260506220633 71 196 3.5 9.6 0.00 0.00 0.00 53 1017.8
20260506220133 70 328 2.6 9.6 0.00 0.00 0.00 49 1017.6
20260506215633 70 270 0.9 8.7 0.00 0.00 0.00 51 1017.9
20260506215133 70 321 0.0 11.3 0.00 0.00 0.00 51 1017.9
20260506214633 70 192 0.9 11.3 0.00 0.00 0.00 49 1017.8
20260506214132 71 198 3.5 7.8 0.00 0.00 0.00 49 1018.2
20260506213132 70 48 0.9 10.4 0.00 0.00 0.00 51 1018.2
20260506212632 70 260 7.8 10.4 0.00 0.00 0.00 50 1018.2
20260506212133 69 328 0.9 7.8 0.00 0.00 0.00 53 1018.3
20260506211633 70 205 3.5 7.8 0.00 0.00 0.00 50 1018.2
20260506211132 70 209 3.5 7.0 0.00 0.00 0.00 51 1018.5
20260506210632 70 313 1.7 7.0 0.00 0.00 0.00 49 1018.4
20260506210132 70 240 2.6 10.4 0.00 0.00 0.00 50 1018.5
20260506205632 70 240 4.3 10.4 0.00 0.00 0.00 50 1018.8
20260506205132 69 229 0.9 8.7 0.00 0.00 0.00 52 1018.6
20260506204132 69 225 4.3 10.4 0.00 0.00 0.00 52 1018.6
20260506203632 68 271 6.1 7.8 0.00 0.00 0.00 53 1018.6
20260506203132 68 275 2.6 8.7 0.00 0.00 0.00 54 1018.6
20260506202631 68 244 2.6 10.4 0.00 0.00 0.00 53 1018.7
20260506202131 68 259 3.5 10.4 0.00 0.00 0.00 53 1018.7
20260506201631 68 231 8.7 10.4 0.00 0.00 0.00 51 1018.6
20260506201131 68 251 4.3 8.7 0.00 0.00 0.00 57 1018.8
20260506200631 68 129 3.5 10.4 0.00 0.00 0.00 52 1018.9
20260506200132 68 207 2.6 12.2 0.00 0.00 0.00 57 1018.9
20260506195631 68 277 5.2 12.2 0.00 0.00 0.00 53 1019.4
20260506195131 67 355 1.7 12.2 0.00 0.00 0.00 57 1019.2
20260506194631 67 176 1.7 10.4 0.00 0.00 0.00 58 1019.3
20260506194131 67 194 2.6 10.4 0.00 0.00 0.00 58 1019.3
20260506193631 66 197 0.9 10.4 0.00 0.00 0.00 56 1019.3
20260506192631 67 246 7.0 7.0 0.00 0.00 0.00 59 1019.5
20260506191631 65 344 1.7 10.4 0.00 0.00 0.00 63 1019.5
20260506191131 65 273 1.7 10.4 0.00 0.00 0.00 59 1019.4
20260506190631 65 244 9.6 10.4 0.00 0.00 0.00 60 1019.5
20260506190131 65 244 4.3 9.6 0.00 0.00 0.00 60 1019.5
20260506185630 64 172 1.7 10.4 0.00 0.00 0.00 62 1019.8
20260506185131 64 274 0.0 11.3 0.00 0.00 0.00 59 1019.7
20260506184630 65 215 4.3 11.3 0.00 0.00 0.00 58 1020.1
20260506184130 65 289 0.9 8.7 0.00 0.00 0.00 62 1020.1
20260506183631 64 223 0.9 8.7 0.00 0.01 0.00 61 1019.8
20260506183130 65 249 3.5 7.0 0.00 0.01 0.00 63 1020.1
20260506182630 64 226 1.7 7.0 0.00 0.03 0.00 63 1019.9
20260506182130 63 236 1.7 8.7 0.00 0.07 0.00 63 1019.8
20260506181630 63 278 6.1 8.7 0.00 0.08 0.00 62 1019.9
20260506181130 62 238 0.0 8.7 0.00 0.08 0.00 63 1019.7
20260506180630 62 223 2.6 8.7 0.00 0.08 0.00 64 1019.7
20260506180130 62 211 2.6 7.0 0.00 0.08 0.00 64 1019.7
20260506175630 62 243 2.6 7.0 0.00 0.08 0.00 64 1019.7
20260506175130 62 234 0.9 7.8 0.00 0.09 0.00 64 1019.7
20260506173630 61 214 5.2 7.8 0.00 0.10 0.00 69 1019.8
20260506173130 60 246 3.5 7.0 0.00 0.10 0.00 67 1019.5
20260506172629 60 230 2.6 7.8 0.00 0.10 0.00 66 1019.6
20260506171630 59 250 1.7 8.7 0.00 0.10 0.00 71 1019.8
20260506170629 58 244 3.5 7.8 0.00 0.10 0.00 71 1019.3
20260506170130 59 229 4.3 7.8 0.00 0.11 0.00 68 1019.5
20260506165630 59 252 3.5 7.8 0.00 0.11 0.00 69 1019.5
20260506164629 58 267 1.7 7.8 0.00 0.12 0.00 71 1019.3
20260506164129 58 242 3.5 7.8 0.00 0.12 0.00 69 1019.3
20260506163129 58 245 6.1 8.7 0.00 0.13 0.00 71 1019.3
20260506162629 58 232 1.7 7.0 0.00 0.13 0.00 73 1019.5
20260506162129 57 192 1.7 7.0 0.00 0.14 0.00 72 1019.1
20260506161629 57 223 0.0 3.5 0.00 0.14 0.00 75 1019.0
20260506161129 56 190 0.9 3.5 0.00 0.15 0.00 76 1019.1
20260506160629 55 191 0.0 3.5 0.00 0.16 0.00 76 1018.9
20260506160129 54 176 0.9 4.3 0.00 0.19 0.00 79 1018.9
20260506155629 54 240 0.9 5.2 0.00 0.20 0.00 78 1018.7
20260506155129 53 243 3.5 5.2 0.00 0.21 0.00 80 1018.7
20260506154629 52 197 0.9 4.3 0.00 0.21 0.00 84 1018.6
20260506154129 51 238 0.9 4.3 0.00 0.22 0.00 88 1018.4
20260506153628 50 178 0.0 2.6 0.00 0.22 0.00 90 1018.4
20260506153129 49 149 0.0 0.0 0.00 0.22 0.00 93 1018.1
20260506152629 48 149 0.0 0.0 0.00 0.22 0.00 93 1018.2
20260506152128 47 149 0.0 0.0 0.00 0.22 0.00 94 1017.9
20260506151628 47 128 0.0 0.0 0.00 0.22 0.00 94 1017.9
20260506151128 46 128 0.0 0.0 0.00 0.22 0.00 94 1017.8
20260506150628 45 128 0.0 0.0 0.00 0.22 0.00 94 1017.7
20260506150129 45 128 0.0 0.0 0.00 0.22 0.00 94 1017.7
20260506145628 44 128 0.0 0.0 0.00 0.22 0.00 94 1017.7
20260506145128 44 91 0.0 0.0 0.00 0.22 0.00 94 1017.7
20260506144628 44 91 0.0 0.0 0.00 0.22 0.00 94 1017.6
20260506144128 44 91 0.0 0.0 0.00 0.22 0.00 94 1017.7
20260506143628 43 91 0.0 0.9 0.00 0.22 0.00 94 1017.6
20260506143128 43 91 0.0 2.6 0.00 0.22 0.00 94 1017.5
20260506142628 42 91 0.9 3.5 0.00 0.22 0.00 94 1017.2
20260506141628 41 91 2.6 3.5 0.00 0.22 0.00 94 1017.2
20260506141127 40 74 1.7 3.5 0.00 0.22 0.00 94 1016.8
20260506140628 40 74 2.6 3.5 0.00 0.23 0.00 94 1016.8
20260506140128 39 74 3.5 6.1 0.00 0.24 0.00 94 1016.8
20260506135627 38 71 2.6 6.1 0.00 0.24 0.00 94 1016.8
20260506135127 38 81 3.5 6.1 0.00 0.24 0.00 94 1016.9
20260506134627 37 53 2.6 6.1 0.00 0.25 0.00 94 1016.5
20260506134128 36 69 1.7 4.3 0.00 0.25 0.00 94 1016.4
20260506133627 35 42 2.6 4.3 0.00 0.25 0.00 93 1016.1
20260506133127 35 53 1.7 4.3 0.00 0.25 0.00 93 1016.2
20260506132627 35 28 2.6 4.3 0.00 0.25 0.00 93 1016.1
20260506132127 35 55 2.6 5.2 0.00 0.25 0.00 93 1016.0
20260506131627 35 46 2.6 5.2 0.00 0.25 0.00 93 1016.1
20260506130127 34 44 2.6 4.3 0.00 0.27 0.00 93 1015.9
20260506125127 34 32 2.6 4.3 0.00 0.27 0.00 93 1016.0
20260506124627 35 39 2.6 4.3 0.00 0.27 0.00 93 1016.0
20260506124127 35 42 3.5 4.3 0.00 0.27 0.00 93 1015.9
20260506123127 34 32 2.6 4.3 0.00 0.29 0.00 93 1015.7
20260506122626 34 75 2.6 4.3 0.00 0.29 0.00 93 1015.7
20260506121627 35 42 3.5 4.3 0.00 0.29 0.00 93 1015.7
20260506121127 35 65 2.6 4.3 0.00 0.29 0.00 92 1015.7
20260506120626 35 36 3.5 4.3 0.00 0.30 0.00 93 1015.6
20260506120126 35 55 3.5 4.3 0.00 0.31 0.00 93 1015.6
20260506115626 35 38 2.6 4.3 0.00 0.33 0.00 93 1016.0